Weather in Vysokogorsky

Russia / Krasnoyarsk Krai     58°10′07″N   92°36′43″E
temp.,
°C
wind,
m/s
gust,
m/s
humid.,
%
clouds,
%
prec.,
mm/h
press.,
hPa
HPBL,
m
24 january, sun
sun2401:00−20s2399100 0.4 103193
04:00−20s2598100 0.1 1029194
07:00−20s2499100 0.3 1030101
10:00−20sse1299100 0.1 103026
13:00−17sw2493100 0.3 1031584
16:00−18wsw2592100 0.1 1032510
19:00−21wsw2598100 0.1 1034258
22:00−24nw3697100 0.1 1036268
25 january, mon
mon2501:00−30w3697100 0.1 1038191
04:00−35w3796100 0.0 1040225
07:00−38w3796100 0.1 1043274
10:00−42wsw269680 0.0 1046196
13:00−39w249280 0.0 1047362
16:00−39wsw129497 0.0 104748
19:00−41sw119692 0.0 104818
22:00−42sw119799 0.0 104718
26 january, tue
tue2601:00−43se019793 0.0 104718
04:00−43ese119788 0.0 104518
07:00−44e119778 0.0 104518
10:00−41ene119796 0.0 104452
13:00−38e128959 0.0 1043266
16:00−38ne019260 0.0 104418
19:00−41ene119565 0.0 104418
22:00−42ene11947 0.0 104518
27 january, wed
wed2701:00−42e119410 0.0 104518
04:00−42ese129522 0.0 104518
07:00−41ese259622 0.0 1044109
10:00−39ese4109468 0.0 1043286
13:00−35ese5109284 0.0 1039346
16:00−33ese61294100 0.1 1034371
19:00−31ese61397100 0.6 1031400
22:00−29ese61297100 0.9 1027399
28 january, thu
thu2801:00−26ese5998100 2.1 1023283
04:00−24ese3798100 1.3 1020203
07:00−22e2399100 2.4 1017112
10:00−19ene1198100 0.9 101744
13:00−16wnw2795100 1.5 1017277
16:00−15nw3994100 0.4 1018518
19:00−20wnw3129497 0.4 1021473
22:00−35wnw3109344 0.0 1030384